sat.trackr.live / text

‹ back to catalog

HULIANWANG DIGUI-53

NORAD 65110 · 2025-168E

PAYLOAD ACTIVE UNKNOWN

§ Identity

Operator
Country
PRC
Launch date
2025-08-04
Launch site
WSC
Launch vehicle
Mass (kg)
RCS (m²)

External: N2YO · Heavens-Above · Gunter

§ Orbital elements

Epoch: 2026-05-25T02:56:49.475904Z

Period
108.33 min
Inclination
50.0050°
Eccentricity
0.0009314
Mean motion
13.29321726 rev/d
Perigee alt
1,142.3 km
Apogee alt
1,156.3 km
Semi-major
7,527.5 km
B*
9.2228e-5
RAAN
48.4135°
Arg perigee
23.1819°
Mean anomaly
336.9472°
Rev number
3,962

§ Raw data

HULIANWANG DIGUI-531 65110U 25168E   26145.12279486 -.00000081  00000+0  92228-4 0  99982 65110  50.0050  48.4135 0009314  23.1819 336.9472 13.29321726 39621

JSON: /api/v1/satellites/65110 · /tle

For live sub-satellite position, see the globe view (requires WebGL).

§ Visibility from observer

Set your observer location to see the next 7 days of passes ≥ 10°. The values pass through the URL so the page stays shareable.

No JS? Fill the form by hand. The geolocation button needs JavaScript.